Regional Weather Roundup
Issued by NWS

Home | Current Version | Previous Version | Text Only | Print | Product List | Glossary Off
Versions: 1 2 3 4 5 6 7 8 9 10 11 12 13 14 15 16 17 18 19 20 21 22 23 24 25 26 27 28 29 30 31 32 33 34 35 36 37 38 39 40 41 42 43 44 45 46 47 48 49 50

000
ASUS43 KLOT 021012
RWRIL

ILLINOIS REGIONAL WEATHER ROUNDUP
NATIONAL WEATHER SERVICE CHICAGO/ROMEOVILLE IL
500 AM CDT SUN AUG 02 2015

NOTE: "FAIR" INDICATES FEW OR NO CLOUDS BELOW 12,000 FEET WITH NO
SIGNIFICANT WEATHER AND/OR OBSTRUCTIONS TO VISIBILITY.

* THESE STATIONS ARE NOT UNDER NWS QUALITY CONTROL. THEY ALSO MAY NOT
  REPORT WEATHER SUCH AS PRECIPITATION OR FOG.

ILZ001-002-007-009-015-016-024-021100-
NORTHWEST ILLINOIS

CITY           SKY/WX    TMP DP  RH WIND       PRES   REMARKS
MOLINE         CLEAR     71  67  87 SW7       29.86F
STERLING*      CLEAR     68  64  88 W3        29.83S
SAVANNA*       CLEAR     71  68  90 S6        29.84F
$$

ILZ003-004-008-010-011-017-018-021100-
NORTH CENTRAL ILLINOIS

CITY           SKY/WX    TMP DP  RH WIND       PRES   REMARKS
ROCKFORD       PTCLDY    69  66  90 S5        29.86F
FREEPORT*      CLEAR     69  68  94 SW12      29.85F
ROCHELLE*      PTCLDY    66  65  98 S5        29.87S
DE KALB*       PTCLDY    71  68  92 SW9       29.87F
PERU*          PTCLDY    70  67  89 SW7       29.88F
$$

ILZ005-006-012>014-019>023-021100-
NORTHEAST ILLINOIS

CITY           SKY/WX    TMP DP  RH WIND       PRES   REMARKS
CHICAGO-OHARE  PTCLDY    72  67  84 W10       29.86S
CHICAGO-MIDWAY PTCLDY    73  66  78 SW8       29.87S
AURORA         PTCLDY    70  65  84 SW9       29.87F
LANSING*       CLEAR     65  63  93 SW5       29.89S
JOLIET*        CLEAR     69  67  93 S3        29.88S
WAUKEGAN       MOCLDY    73  68  84 SW9       29.83F
DUPAGE AIRPORT PTCLDY    69  65  86 SW7       29.87S
KANKAKEE*      CLEAR     65  63  95 CALM      29.91S
WHEELING       PTCLDY    72  66  81 SW6       29.87S
MORRIS*        CLEAR     69  66  90 SW6       29.87F
ROMEOVILLE*    CLEAR     69  65  88 W8        29.88S
NORTHERLY ISL    N/A     74  65  73 SW3         N/A
$$

LMZ740>746-021100-
SOUTHERN LAKE MICHIGAN

STATION/POSITION SKY/WX   TEMP    WIND        PRES    VSBY  WAVE
                          AIR SEA DIR/SP/G                  HT/PER
                          (F)     (DEG/KT/KT) (MB)    (MI)  (FT/S)
HARRISON CRIB              75     250/ 17/ 21   N/A
BURNHAM HARBOR             73     220/  4/ 12   N/A
CALUMET HARBOR             72     220/  4/  7   N/A
BURNS HARBOR               72     210/  9/ 14 1012.5F
MICHIGAN CITY              71     190/ 12/ 14   N/A
MICHIGAN CITY 6N           73 73  230/ 12/ 16   N/A           2/ 3
ST. JOSEPH                 73 73  250/ 14/ 17   N/A           3/ 3
$$

ILZ025>027-034>036-040-047-049-050-058-095>099-021100-
WEST-CENTRAL ILLINOIS

CITY           SKY/WX    TMP DP  RH WIND       PRES   REMARKS
QUINCY         CLEAR     68  66  93 S8        29.91F
GALESBURG*     CLEAR     65  64  98 SW6       29.90S
MACOMB*        CLEAR     65  64  96 W5        29.93S
JACKSONVILLE*  CLEAR     72  69  91 S5        29.92F
PITTSFIELD*    CLEAR     70  68  93 S3        29.94S
$$

ILZ028>032-037-038-041>044-048-051>054-059>061-021100-
CENTRAL ILLINOIS

CITY           SKY/WX    TMP DP  RH WIND       PRES   REMARKS
PONTIAC        CLEAR     68  66  93 SW5       29.92S
BLOOMINGTON    CLEAR     67  64  90 SW8       29.93F
DECATUR        CLEAR     66  60  81 SW6       29.94F
PEORIA         CLEAR     69  65  86 SW5       29.91S
LACON*         CLEAR     71  67  89 SW6       29.88S
LINCOLN*       CLEAR     67  62  85 CALM      29.92S
SPRINGFIELD    CLEAR     72  67  84 SW6       29.93S
TAYLORVILLE    CLEAR     64  63  94 SW5       29.94S
$$

ILZ033-039-045-046-055>057-062-063-021100-
EAST-CENTRAL ILLINOIS

CITY           SKY/WX    TMP DP  RH WIND       PRES   REMARKS
CHAMPAIGN      CLEAR     63  60  90 S6        29.94F
DANVILLE*      CLEAR     61  60  96 S5        29.91F
RANTOUL*       CLEAR     67  62  84 SW7       29.93F
MATTOON        CLEAR     68  60  75 S6        29.94F
PARIS*         CLEAR     63  61  93 SW7       29.95F
$$

ILZ079-100>102-021100-
SOUTHWEST ILLINOIS

CITY           SKY/WX    TMP DP  RH WIND       PRES   REMARKS
ALTON          MOCLDY    69  67  91 CALM      29.95S
CAHOKIA*       PTCLDY    73  69  87 CALM      29.94F
SPARTA*        PTCLDY    73  68  86 S5        29.97S
$$

ILZ064>066-069>071-074>076-080>082-084>086-088>090-092>094-021100-
SOUTH-CENTRAL ILLINOIS

CITY           SKY/WX    TMP DP  RH WIND       PRES   REMARKS
CARBONDALE     PTCLDY    68  66  93 CALM      29.96S
CAIRO*         CLEAR     69  68  98 CALM      29.95S
EFFINGHAM*     CLEAR     65  61  88 CALM      29.96F
MARION         PTCLDY    70  64  83 CALM      29.97S
MT. VERNON     CLEAR     64  59  82 CALM      29.97S
CENTRALIA*     CLEAR     68  63  83 S5        29.96S
SALEM*         CLEAR     66  64  90 CALM      29.96S
METROPOLIS*    PTCLDY    67  67 100 CALM      29.97R
$$

ILZ067-068-072-073-078-083-087-091-021100-
SOUTHEAST ILLINOIS

CITY           SKY/WX    TMP DP  RH WIND       PRES   REMARKS
LAWRENCEVILLE  PTCLDY    64  62  93 CALM      29.96F
FLORA*         PTCLDY    63  61  93 CALM      29.96F
FAIRFIELD*     CLEAR     64  64  98 CALM      29.95S
HARRISBURG*    PTCLDY    65  65 100 CALM      29.97F
ROBINSON*      CLEAR     62  60  95 CALM      29.96S
CARMI*         PTCLDY    65  61  87 CALM      29.96S
$$

ABBREVIATIONS USED IN REMARKS
   TC - TEMPERATURE IN CELSIUS
  WCI - WIND CHILL INDEX
   HX - HEAT INDEX
  VSB - VISIBILITY
$$



USA.gov is the U.S. government's official web portal to all federal, state and local government web resources and services.